Weather History for Philip, SD

Change the Weather History Date:

Tuesday, March 26, 2013

  Actual Average Record
Temperature  
Mean Temperature 33 °F 39 °F  
Max Temperature 55 °F 52 °F 83 °F (2012)
Min Temperature 11 °F 25 °F 1 °F (1964)
Degree Days  
Heating Degree Days 32 26  
Month to date heating degree days 850 811  
Since 1 July heating degree days 5876 6176  
Cooling Degree Days 0 0  
Month to date cooling degree days 0 0  
Year to date cooling degree days 0 0  
Moisture  
Dew Point 16 °F    
Average Humidity 57    
Maximum Humidity 92    
Minimum Humidity 22    
Precipitation  
Precipitation 0.00 in 0.04 in 0.28 in (1975)
Month to date precipitation 0.40 1.07  
Year to date precipitation 1.22 1.85  
Sea Level Pressure  
Sea Level Pressure 30.14 in    
Wind  
Wind Speed 9 mph (East)    
Max Wind Speed 20 mph    
Max Gust Speed 24 mph    
Visibility 10 miles    
Events      
T = Trace of Precipitation, MM = Missing Value Source: NWS Daily Summary

Daily Weather History Graph

Daily Weather History Graph

Search for Another Location

Airport:

Trip Planner

Search our weather history database for the weather conditions in past years. The results will help you decide how hot, cold, wet, or windy it might be!

Date:

Astronomy

Mar. 26, 2013 Rise Set
Actual Time 6:38 AM MDT 7:06 PM MDT
Civil Twilight 6:09 AM MDT 7:35 PM MDT
Nautical Twilight 5:35 AM MDT 8:09 PM MDT
Astronomical Twilight 4:59 AM MDT 8:45 PM MDT
Moon 6:46 PM MDT (3/26) 5:56 AM MDT (3/26)
Length of Visible Light 13h 26m
Length of Day
12h 28m
Waxing Gibbous, 99% of the Moon is Illuminated
Mar 26
Waxing Gibbous
Mar 27
Full
Apr 2
Last Quarter
Apr 10
New
Apr 18
First Quarter

Hourly Weather History & Observations

Time (MDT) Temp. Windchill Dew Point Humidity Pressure Visibility Wind Dir Wind Speed Gust Speed Precip Events Conditions
12:55 AM 15.1 °F 7.7 °F 9.0 °F 77% 30.34 in 10.0 mi East 4.6 mph - N/A   Clear
1:55 AM 12.9 °F 5.2 °F 8.1 °F 81% 30.32 in 10.0 mi East 4.6 mph - N/A   Clear
2:55 AM 17.1 °F 10.0 °F 10.9 °F 77% 30.29 in 10.0 mi SE 4.6 mph - N/A   Clear
3:55 AM 14.0 °F 8.2 °F 9.0 °F 80% 30.27 in 10.0 mi ENE 3.5 mph - N/A   Clear
4:55 AM 12.0 °F 4.1 °F 8.1 °F 84% 30.25 in 10.0 mi East 4.6 mph - N/A   Clear
5:55 AM 12.0 °F 1.5 °F 8.1 °F 84% 30.23 in 10.0 mi East 6.9 mph - N/A   Clear
6:55 AM 12.0 °F -0.4 °F 9.0 °F 88% 30.23 in 10.0 mi East 9.2 mph - N/A   Clear
7:55 AM 19.0 °F 8.2 °F 14.0 °F 81% 30.22 in 10.0 mi East 9.2 mph - N/A   Clear
8:55 AM 27.0 °F 18.0 °F 16.0 °F 63% 30.19 in 10.0 mi ESE 9.2 mph - N/A   Clear
9:55 AM 33.1 °F 24.9 °F 18.0 °F 54% 30.17 in 10.0 mi SE 10.4 mph - N/A   Clear
10:55 AM 37.9 °F 30.5 °F 18.0 °F 45% 30.14 in 10.0 mi SE 11.5 mph 19.6 mph N/A   Clear
11:55 AM 43.0 °F 38.8 °F 18.0 °F 37% 30.11 in 10.0 mi ESE 6.9 mph - N/A   Clear
12:55 PM 48.9 °F - 18.0 °F 29% 30.06 in 10.0 mi SE 10.4 mph - N/A   Clear
1:55 PM 54.0 °F - 19.0 °F 25% 30.02 in 10.0 mi SE 8.1 mph 17.3 mph N/A   Clear
2:55 PM 54.0 °F - 18.0 °F 24% 29.99 in 10.0 mi ESE 11.5 mph - N/A   Clear
3:55 PM 53.1 °F - 19.0 °F 26% 30.00 in 10.0 mi ENE 12.7 mph - N/A   Unknown
4:55 PM 54.0 °F - 16.0 °F 22% 29.99 in 10.0 mi North 3.5 mph - N/A   Clear
5:55 PM 50.0 °F - 21.9 °F 33% 30.01 in 10.0 mi NE 9.2 mph - N/A   Clear
6:55 PM 43.0 °F 35.1 °F 24.1 °F 47% 30.03 in 10.0 mi NE 17.3 mph - N/A   Clear
7:55 PM 36.0 °F 26.7 °F 25.0 °F 64% 30.04 in 10.0 mi ENE 15.0 mph - N/A   Clear
8:55 PM 30.9 °F 21.2 °F 24.1 °F 76% 30.06 in 10.0 mi NE 12.7 mph - N/A   Clear
9:55 PM 28.0 °F 17.5 °F 21.9 °F 78% 30.09 in 10.0 mi North 12.7 mph - N/A   Clear
10:55 PM 24.1 °F 13.1 °F 19.9 °F 84% 30.10 in 10.0 mi North 11.5 mph - N/A   Clear
11:55 PM 21.9 °F 9.8 °F 19.0 °F 89% 30.11 in 10.0 mi North 12.7 mph - N/A   Clear